www.pogodaiklimat.ru

Погода и климат >> Архив погоды >> Австрия >> Санкт-Пёльтен


ПОГОДА в Санкт-Пёльтене

  • Прогноз погоды в Санкт-Пёльтене
  • Монитор погоды в Санкт-Пёльтене

АРХИВ ПОГОДЫ в Санкт-Пёльтене

Время (UTC), дата Ветер
(напр.,м/с)
 
Видим.   Явления Облачность Т
(С)
Тd
(С)
f
(%)
Тe
(С)
Тes
(С)
Комфортность P
(гПа)
Po
(гПа)
Тmin
(С)
Tmax
(С)
R
(мм)
R24
(мм)
S
(см)
22 10.06 В 1 н/о н/о +23.3 +16.3 65 +28 +28 душно 1009.6 979.1
23 10.06 В 1 н/о н/о +21.7 +16.2 71 +25 +25 комфорт 1010.0 979.3
00 11.06 СВ 1 н/о н/о +20.5 +16.3 77 +25 +25 комфорт 1009.6 978.8
01 11.06 С 2 н/о н/о +21.1 +16.0 73 +24 +24 комфорт 1009.4 978.7
02 11.06 С 2 н/о н/о +20.1 +15.9 77 +23 +23 комфорт 1009.3 978.5
03 11.06 С 1 н/о н/о +19.0 +15.7 81 +21 +21 комфорт 1009.7 978.7
04 11.06 штиль 0 н/о н/о +18.7 +15.6 82 +20 +20 1009.9 978.9
05 11.06 штиль 0 н/о н/о +19.2 +16.0 82 +21 +21 комфорт 1009.8 978.8
06 11.06 СВ 2 н/о н/о +22.9 +17.5 72 +28 +28 душно 1009.3 978.8 +18.2 +28.5
07 11.06 СВ 2 н/о н/о +26.4 +18.1 60 +31 +31 душно 1009.3 979.1
08 11.06 ЮВ 4 20 км 3/3 1200 м
[Sc]
+28.3 +18.2 54 +33 +39 очень
душно
1009.3 979.3
09 11.06 ЮЗ 6 н/о н/о +25.1 +17.6 63 +29 +29 душно 1010.2 979.9
10 11.06 ЮЗ 3 н/о н/о +26.7 +17.6 57 +31 +31 душно 1009.8 979.6
11 11.06 В 1 н/о н/о +29.6 +18.2 50 +34 +34 очень
душно
1008.6 978.8
12 11.06 В 3 30 км 3/3 1200 м
[Sc]
+32.6 +16.7 39 +36 +46 очень
душно
1007.4 977.9 0.0
13 11.06 В 4 н/о н/о +32.5 +16.3 38 +35 +35 душно 1007.4 977.8 0.0
14 11.06 В 4 30 км 3/3 1200 м
[Sc]
+31.5 +15.8 39 +34 +40 душно 1007.1 977.5 0.0
15 11.06 В 3 н/о н/о +31.6 +16.3 40 +35 +35 очень
душно
1007.3 977.7 0.0
16 11.06 В 3 н/о н/о +29.9 +16.7 45 +33 +33 душно 1007.6 977.8 0.0
17 11.06 В 4 н/о н/о +28.8 +16.3 47 +32 +32 душно 1008.0 978.1
18 11.06 В 3 н/о н/о +28.1 +16.0 48 +31 +31 душно 1007.8 977.8 +22.6 +33.0 0.0
19 11.06 В 2 н/о н/о +27.4 +15.8 49 +30 +30 жарко 1008.0 977.9
20 11.06 ЮВ 2 н/о н/о +26.3 +14.9 49 +29 +29 жарко 1009.0 978.8
21 11.06 ЮВ 4 н/о н/о +25.8 +10.8 39 +27 +27 жарко 1009.5 979.2
22 11.06 ЮВ 3 н/о н/о +24.6 +10.7 42 +26 +26 жарко 1009.3 978.9
23 11.06 В 2 н/о н/о +23.1 +11.0 46 +25 +25 комфорт 1008.6 978.0
00 12.06 СВ 1 н/о н/о +21.2 +11.7 55 +23 +23 комфорт 1008.7 977.9
01 12.06 С 2 н/о н/о +19.5 +13.0 66 +22 +22 комфорт 1008.4 977.5
02 12.06 С 2 н/о н/о +19.1 +13.4 70 +21 +21 комфорт 1008.5 977.5
03 12.06 штиль 0 н/о н/о +17.6 +13.6 77 +18 +18 1009.2 978.1
04 12.06 штиль 0 н/о н/о +17.1 +12.8 76 +17 +17 1009.4 978.2
05 12.06 С 1 н/о н/о +19.1 +14.6 75 +22 +22 комфорт 1009.4 978.4
06 12.06 С 1 20 км 4/4 900 м
[Sc]
+21.5 +16.6 74 +25 +29 комфорт 1009.2 978.5 +16.9 +28.2
07 12.06 СВ 1 н/о н/о +24.0 +17.0 65 +28 +28 душно 1009.1 978.7
08 12.06 В 2 н/о н/о +27.8 +14.3 44 +30 +30 жарко 1008.6 978.5
09 12.06 СВ 2 н/о н/о +29.2 +15.5 43 +32 +32 душно 1008.0 978.1 0.0
10 12.06 ЮВ 4 н/о н/о +32.2 +13.4 32 +33 +33 жарко 1007.6 978.0 0.0
11 12.06 ЮВ 4 н/о н/о +32.8 +12.9 30 +33 +33 жарко 1007.2 977.6 0.0
12 12.06 В 3 30 км 3/3 1200 м
[Sc]
+33.2 +14.3 32 +35 +45 душно 1007.0 977.5 0.0
13 12.06 В 4 н/о н/о +33.1 +14.1 32 +34 +34 очень
жарко
1006.5 977.0 0.0
14 12.06 В 5 30 км 3/3 1200 м
[Sc]
+33.4 +13.7 30 +34 +39 очень
жарко
1006.4 976.9 0.0
15 12.06 В 5 н/о н/о +33.5 +14.2 31 +35 +35 душно 1006.3 976.8 0.0
16 12.06 ЮВ 4 н/о н/о +32.0 +13.9 33 +33 +33 жарко 1006.2 976.6
17 12.06 ЮВ 4 н/о н/о +31.7 +13.7 33 +33 +33 жарко 1006.4 976.8
18 12.06 ЮВ 4 30 км 5/5 1200 м
[Sc]
+29.2 +14.9 42 +32 +32 душно 1007.2 977.3 +21.3 +33.7 0.0
19 12.06 Ю 4 н/о н/о +26.4 +17.0 56 +30 +30 душно 1008.4 978.2
20 12.06 ЮЗ 5 н/о н/о +23.3 +16.8 67 +28 +28 душно 1009.8 979.3 0.0
21 12.06 ЮЗ 5 н/о н/о +21.9 +16.3 71 +26 +26 душно 1010.7 980.0 0.0
22 12.06 ЮЗ 5 н/о н/о +20.8 +15.9 74 +24 +24 комфорт 1011.0 980.2 0.0
23 12.06 ЮЗ 4 н/о н/о +20.0 +15.4 75 +22 +22 комфорт 1011.6 980.7 0.0
00 13.06 ЮЗ 4 н/о н/о +19.1 +14.9 77 +20 +20 1011.9 980.9 0.0
01 13.06 ЮЗ 4 н/о н/о +18.3 +14.5 79 +19 +19 1011.9 980.8 0.0
02 13.06 ЮЗ 4 н/о н/о +17.7 +13.7 77 +17 +17 1012.1 980.9 0.0
03 13.06 ЮЗ 4 н/о н/о +17.3 +13.4 78 +17 +17 1012.4 981.1 0.0
04 13.06 ЮЗ 4 н/о н/о +17.4 +13.4 77 +17 +17 1012.7 981.4 0.0
05 13.06 ЮЗ 5 н/о н/о +18.1 +13.7 75 +18 +18 1013.2 982.0 0.0
06 13.06 ЮЗ 6 20 км 5/5 1200 м
[Sc]
+19.3 +14.1 72 +20 +21 1013.7 982.6 +17.2 +29.6 0.0
07 13.06 ЮЗ 4 н/о н/о +20.9 +14.5 67 +24 +24 комфорт 1013.8 982.9
08 13.06 ЮЗ 5 30 км 3/0
[Ac trans]
+21.8 +14.6 64 +25 +30 комфорт 1013.5 982.7
09 13.06 ЮЗ 4 н/о н/о +23.2 +15.0 60 +27 +27 душно 1013.4 982.7
10 13.06 Ю 4 н/о н/о +24.8 +15.8 57 +28 +28 жарко 1013.0 982.5
11 13.06 ЮЗ 1 н/о н/о +26.0 +16.2 55 +29 +29 душно 1012.3 982.0
12 13.06 С 2 30 км 3/3 1200 м
[Sc]
+26.7 +16.2 53 +30 +42 душно 1011.6 981.4
13 13.06 СВ 2 н/о н/о +28.3 +17.4 52 +32 +32 душно 1011.0 980.9
14 13.06 С 3 30 км 3/0
[Ac trans]
+28.7 +17.7 51 +33 +41 очень
душно
1010.3 980.3
15 13.06 С 3 н/о н/о +29.0 +18.2 52 +34 +34 очень
душно
1009.8 979.9
16 13.06 С 3 н/о н/о +29.1 +18.8 54 +34 +34 очень
душно
1009.5 979.6
17 13.06 С 2 н/о н/о +29.2 +19.4 56 +35 +35 очень
душно
1009.0 979.1
18 13.06 С 2 30 км ясно +28.5 +19.6 59 +34 +35 очень
душно
1008.8 978.9 +19.2 +29.8
19 13.06 СЗ 2 н/о н/о +27.4 +19.5 62 +33 +33 очень
душно
1009.4 979.3
20 13.06 ЮЗ 2 н/о н/о +25.2 +19.5 71 +31 +31 очень
душно
1010.7 980.4
21 13.06 ЮЗ 3 н/о н/о +24.6 +19.6 74 +30 +30 очень
душно
1011.8 981.4
22 13.06 ЮЗ 6 н/о н/о +24.5 +16.9 63 +28 +28 душно 1013.0 982.5
23 13.06 ЮЗ 6 н/о н/о +23.6 +15.5 60 +27 +27 жарко 1013.9 983.3
00 14.06 ЮЗ 6 н/о н/о +22.8 +15.2 62 +27 +27 душно 1014.4 983.7
01 14.06 ЮЗ 4 н/о н/о +21.9 +14.9 64 +25 +25 комфорт 1014.9 984.1
02 14.06 З 1 н/о н/о +21.3 +15.4 69 +24 +24 комфорт 1016.2 985.3
03 14.06 ЮЗ 3 н/о н/о +21.1 +15.2 69 +24 +24 комфорт 1016.5 985.5
04 14.06 ЮЗ 3 н/о н/о +20.6 +15.0 70 +24 +24 комфорт 1017.2 986.2
05 14.06 ЮЗ 3 н/о н/о +20.9 +15.6 72 +25 +25 комфорт 1017.7 986.7
06 14.06 ЮЗ 3 30 км 3/3 1200 м
[Sc]
+22.6 +16.3 68 +27 +30 душно 1017.9 987.1 +20.5 +28.8
07 14.06 Ю 2 н/о н/о +24.6 +16.8 62 +28 +28 душно 1018.2 987.6
08 14.06 З 1 30 км ясно +25.8 +17.0 58 +30 +44 душно 1018.0 987.5
09 14.06 СЗ 1 н/о н/о +26.9 +17.6 57 +31 +31 душно 1017.7 987.3
10 14.06 В 2 н/о н/о +28.4 +18.7 56 +34 +34 очень
душно
1017.5 987.3
11 14.06 СВ 3 н/о н/о +28.6 +17.9 52 +33 +33 очень
душно
1017.0 986.8
12 14.06 СВ 3 30 км ясно +29.7 +18.3 50 +34 +49 очень
душно
1016.3 986.2
13 14.06 СВ 2 н/о н/о +30.7 +17.7 46 +35 +35 очень
душно
1015.7 985.7
14 14.06 СВ 5 н/о н/о +31.8 +17.7 43 +36 +36 очень
душно
1014.7 984.9
15 14.06 СВ 3 н/о н/о +31.7 +16.7 41 +35 +35 очень
душно
1014.1 984.3
16 14.06 СВ 3 н/о н/о +31.5 +16.9 42 +35 +35 очень
душно
1013.5 983.7
17 14.06 СВ 4 н/о н/о +30.7 +17.4 45 +35 +35 очень
душно
1013.5 983.6
18 14.06 СВ 4 30 км ясно +29.3 +17.6 49 +33 +34 душно 1013.3 983.3 +22.4 +32.2
19 14.06 СВ 5 н/о н/о +27.9 +17.4 53 +32 +32 душно 1013.3 983.1
20 14.06 СВ 5 н/о н/о +27.0 +17.7 57 +31 +31 душно 1013.6 983.3
21 14.06 С 2 н/о н/о +25.9 +17.9 61 +30 +30 душно 1013.6 983.2
22 14.06 С 2 н/о н/о +24.8 +17.7 65 +29 +29 душно 1013.1 982.6
23 14.06 С 1 н/о н/о +23.9 +17.7 68 +28 +28 душно 1012.8 982.3
00 15.06 СВ 2 н/о н/о +22.3 +17.7 75 +27 +27 душно 1012.8 982.1
01 15.06 С 1 н/о н/о +21.4 +17.5 78 +25 +25 комфорт 1012.8 982.0
02 15.06 Ю 1 н/о н/о +19.9 +17.2 84 +24 +24 комфорт 1012.4 981.5
03 15.06 ЮВ 1 н/о н/о +19.3 +16.9 86 +22 +22 комфорт 1012.1 981.1
04 15.06 штиль 0 н/о н/о +20.5 +16.6 78 +23 +23 комфорт 1011.8 980.9
05 15.06 С 2 н/о н/о +21.1 +17.3 79 +25 +25 комфорт 1011.5 980.7
06 15.06 С 1 30 км 10/10 900 м
[Sc]
+22.8 +17.4 72 +28 +28 душно 1011.1 980.5 +19.2 +29.7
07 15.06 СВ 1 н/о н/о +24.0 +17.8 68 +28 +28 душно 1011.3 980.8
08 15.06 СВ 1 30 км 10/10 900 м
[Sc]
+25.2 +17.8 64 +30 +30 душно 1011.5 981.1
09 15.06 ЮВ 1 н/о н/о +26.7 +18.5 61 +32 +32 очень
душно
1011.4 981.2 0.0
10 15.06 СВ 1 н/о н/о +29.7 +17.3 47 +34 +34 очень
душно
1010.3 980.4
11 15.06 СВ 1 н/о н/о +28.9 +19.2 56 +34 +34 очень
душно
1010.9 980.9 0.0
12 15.06 В 1 30 км 10/10 900 м
[Sc]
+29.8 +21.3 60 +37 +37 очень
душно
1010.3 980.5 0.0
13 15.06 ЮВ 2 н/о н/о +30.5 +21.1 57 +38 +38 очень
душно
1010.1 980.3
14 15.06 ЮВ 2 30 км 10/10 900 м
[Sc]
+31.5 +20.5 52 +38 +38 очень
душно
1009.9 980.2
15 15.06 Ю 3 н/о н/о +33.1 +14.5 33 +35 +35 душно 1009.3 979.7
16 15.06 ЮВ 1 н/о н/о +33.6 +13.8 30 +35 +35 душно 1008.4 978.9
17 15.06 ЮЗ 1 н/о н/о +33.1 +15.6 35 +35 +35 душно 1008.4 978.9
18 15.06 ЮЗ 6 30 км 3/3 1200 м
[Sc]
+28.2 +16.7 50 +32 +32 душно 1009.5 979.5 +22.5 +34.0 0.0
19 15.06 ЮЗ 8
{13}
н/о н/о +25.4 +15.6 55 +29 +29 душно 1011.1 980.7
20 15.06 ЮЗ 5
{13}
н/о н/о +24.1 +15.9 60 +27 +27 жарко 1012.0 981.5
21 15.06 ЮЗ 6
{13}
н/о н/о +23.0 +16.2 66 +28 +28 душно 1012.9 982.2
22 15.06 Ю 4 н/о н/о +21.9 +15.3 66 +25 +25 комфорт 1012.8 982.0
23 15.06 ЮЗ 2 н/о н/о +20.9 +16.1 74 +25 +25 комфорт 1013.3 982.4
00 16.06 ЮЗ 2
{13}
н/о н/о +20.5 +16.5 78 +24 +24 комфорт 1013.4 982.5
01 16.06 ЮЗ 2 н/о н/о +19.4 +16.1 81 +22 +22 комфорт 1013.4 982.4
02 16.06 Ю 2 н/о н/о +18.4 +15.4 83 +19 +19 1013.6 982.4
03 16.06 ЮЗ 4 н/о н/о +18.5 +15.9 85 +19 +19 1014.5 983.3
04 16.06 ЮЗ 6 н/о н/о +18.4 +16.2 87 +18 +18 1015.3 984.1
05 16.06 ЮЗ 7 н/о н/о +19.3 +16.0 81 +20 +20 1015.6 984.5
06 16.06 ЮЗ 8
{16}
30 км 8/8 900 м
[Sc]
+19.6 +14.8 74 +21 +21 комфорт 1016.4 985.3 +18.3 +28.9
07 16.06 ЮЗ 9
{15}
н/о н/о +19.2 +14.6 75 +20 +20 1017.4 986.2
08 16.06 ЮЗ 7
{15}
30 км 10/10 900 м
[Sc]
+19.4 +14.8 75 +21 +21 комфорт 1018.0 986.8
09 16.06 ЮЗ 7
{15}
н/о н/о +19.9 +14.6 72 +22 +22 комфорт 1018.6 987.4
10 16.06 ЮЗ 8
{15}
н/о н/о +22.3 +15.2 64 +26 +26 жарко 1018.2 987.3
11 16.06 ЮЗ 7
{14}
н/о н/о +21.6 +14.9 66 +25 +25 комфорт 1018.6 987.6
12 16.06 ЮЗ 5
{15}
30 км 9/9 900 м
[Sc]
+22.9 +15.0 61 +27 +28 душно 1018.6 987.7
13 16.06 ЮЗ 8
{14}
н/о н/о +23.8 +14.8 57 +27 +27 жарко 1018.2 987.4
14 16.06 ЮЗ 6
{13}
30 км 9/9 900 м
[Sc]
+23.4 +14.8 58 +27 +28 душно 1018.2 987.4
15 16.06 ЮЗ 5
{14}
н/о н/о +22.4 +14.7 62 +26 +26 жарко 1018.2 987.3
16 16.06 ЮЗ 5 н/о н/о +22.5 +15.0 63 +26 +26 жарко 1017.8 986.9
17 16.06 ЮЗ 4 н/о н/о +22.7 +15.0 62 +27 +27 душно 1018.6 987.7
18 16.06 ЮЗ 5
{15}
30 км 9/9 900 м
[Sc]
+22.2 +14.5 62 +26 +26 душно 1018.9 988.0 +18.8 +24.5
19 16.06 ЮЗ 3 н/о н/о +21.6 +14.6 64 +25 +25 комфорт 1019.1 988.1
20 16.06 ЮЗ 3 н/о н/о +21.0 +14.5 66 +24 +24 комфорт 1019.8 988.7
21 16.06 ЮЗ 4 н/о н/о +20.6 +14.4 68 +23 +23 комфорт 1020.7 989.5
22 16.06 ЮЗ 3 н/о н/о +20.3 +14.5 69 +23 +23 комфорт 1020.3 989.1
23 16.06 ЮЗ 2 н/о н/о +19.8 +14.6 72 +22 +22 комфорт 1020.2 989.0
00 17.06 ЮЗ 2 н/о н/о +19.3 +14.2 72 +21 +21 комфорт 1020.4 989.1
01 17.06 ЮЗ 4 н/о н/о +18.7 +14.2 75 +19 +19 1020.5 989.1
02 17.06 ЮЗ 3 н/о н/о +18.3 +14.1 76 +19 +19 1020.3 988.9
03 17.06 ЮЗ 3 н/о н/о +17.3 +13.9 80 +17 +17 1020.6 989.1
04 17.06 ЮЗ 1 н/о н/о +17.1 +14.1 83 +18 +18 1020.8 989.3
05 17.06 ЮЗ 2 н/о н/о +18.3 +14.6 79 +19 +19 1020.9 989.5
06 17.06 З 2 30 км 6/6 900 м
[Sc]
+19.8 +13.6 67 +22 +24 комфорт 1020.8 989.5 +17.0 +22.2
07 17.06 СЗ 2 н/о н/о +20.9 +12.8 60 +24 +24 комфорт 1020.3 989.2
08 17.06 С 1 30 км 5/5 1200 м
[Sc]
+21.7 +13.4 59 +24 +31 комфорт 1020.3 989.3
09 17.06 С 2 н/о н/о +22.8 +12.4 52 +26 +26 жарко 1020.0 989.1
10 17.06 СВ 3 н/о н/о +23.7 +13.1 51 +26 +26 жарко 1019.8 989.0
11 17.06 СВ 2 н/о н/о +25.0 +13.0 47 +27 +27 жарко 1019.4 988.7
12 17.06 СВ 2 30 км 5/5 1200 м
[Sc]
+25.1 +12.5 45 +27 +35 жарко 1019.1 988.4
13 17.06 СВ 2 н/о н/о +25.1 +12.7 46 +27 +27 жарко 1018.9 988.2
15 17.06 СВ 2 н/о н/о +25.9 +13.7 47 +28 +28 жарко 1017.6 987.1
17 17.06 СВ 3 н/о н/о +25.4 +12.9 46 +27 +27 жарко 1017.2 986.6
18 17.06 СВ 2 30 км 8/8 1200 м
[Sc]
+24.0 +13.4 51 +26 +26 жарко 1017.2 986.5 +19.4 +26.1
19 17.06 СВ 2 н/о н/о +23.1 +13.8 56 +27 +27 душно 1017.4 986.6
20 17.06 СВ 2 н/о н/о +22.2 +14.3 61 +25 +25 комфорт 1017.9 987.0
21 17.06 СВ 2 н/о н/о +21.3 +13.5 61 +24 +24 комфорт 1018.1 987.1
22 17.06 СВ 1 н/о н/о +20.6 +14.0 66 +24 +24 комфорт 1018.1 987.0

 

Местоположение метеостанции Санкт-Пёльтен (Австрия): широта 48.20 долгота 15.63 высота над уровнем моря 260 м.

В архиве по умолчанию представлена погода в Санкт-Пёльтене за последнюю неделю. Архивные данные за месяц целиком и за предыдущие месяцы, начиная с января 2011 года, Вы можете получить, выбрав интересующий диапазон дат из раскрывающегося списка и нажав кнопку "Ввод!".


*Определитесь, кто Вы:
робот инопланетянин человек

Внимание! Время в таблицах - всемирное. Для получения местного времени необходимо прибавить поправку, которая равна 1 ч.

Смотрите также архив погоды в соседних городах и на ближайших метеорологических станциях:

Погода в Лилиенфельде (Австрия) (19 км)
Погода в Кремс-ан-дер-Донау (Австрия) (24 км)
Погода в Яуерлинге (Австрия) (27 км)
Погода в Лангенлойсе (Австрия) (30 км)
Погода в Тульн-ан-дер-Донау (Австрия) (39 км)
Погода в Марияхильфберге (Австрия) (41 км)
Погода в Гарс-ам-Кампе (Австрия) (42 км)
Погода в Мариябрунн (Австрия) (44 км)
Погода в Штоккерау (Австрия) (45 км)
Погода в Санкт-Себастьяне (Австрия) (51 км)

Пояснения к столбцам:

Ветер - указаны скорость ветра в м/с - средняя за 10 мин, порывы в срок и между сроками (в фигурных скобках) и направление, откуда дует ветер: С - северный, СВ - северо-восточный, В - восточный, ЮВ - юго-восточный, Ю - южный, ЮЗ - юго-западный, З - западный, СЗ - северо-западный.
Видимость - горизонтальная дальность видимости в метрах или километрах. При видимости от 1 до 10 км при отсутствии осадков обычно наблюдается дымка, при ухудшении видимости до 1 км и менее - туман. В сухую погоду видимость может ухудшаться дымом, пылью или мглою.
Явления - указаны атмосферные явления, наблюдавшиеся в срок или в последний час перед сроком; фигурными скобками обозначены явления, наблюдавшиеся между сроками (за 1-3 часа до срока); квадратными скобками обозначены град или гололедные отложения с указанием их диаметра в мм.
Облачность - указаны через наклонную черту общая и нижняя облачность в баллах и высота нижней границы облаков в метрах; квадратными скобками обозначены формы облаков: Ci - перистые, Cs - перисто-слоистые, Cc - перисто-кучевые, Ac - высококучевые, As - высокослоистые, Sc - слоисто-кучевые, Ns - слоисто-дождевые, Cu - кучевые, Cb - кучево-дождевые. Подробнее классификацию облаков см. в Атласе облаков (PDF).
T - Температура воздуха - температура, измеренная на высоте 2 м над землей.
Td - Температура точки росы - температура, при понижении до которой содержащийся в воздухе водяной пар достигнет насыщения.
f - Относительная влажность воздуха - влажноcть воздуха, измеренная на высоте 2 м над землей.
Te - Эффективная температура - температура, которую ощущает одетый по сезону человек в тени. Характеристика душности погоды. При расчете учитывается влияние влажности воздуха и скорости ветра на теплоощущения человека.
Tes - Эффективная температура на солнце - температура, которую ощущает человек, с поправкой на солнечный нагрев. Характеристика знойности погоды. Зависит от высоты солнца над горизонтом, облачности и скорости ветра. Ночью, в пасмурную погоду, а также при ветре 12 м/с и более поправка равна нулю.
P - Атмосферное давление - приведенное к уровню моря атмосферное давление.
Po - Атмосферное давление - измеренное на уровне метеостанции атмосферное давление.
Tmin - Минимальная температура - минимум температуры воздуха на высоте 2 м над землей.
Tmax - Максимальная температура - максимум температуры воздуха на высоте 2 м над землей.
R - Количество осадков - Количество выпавших осадков за период времени, мм. При наведении курсора мыши на число - период времени, за который выпало указанное количество осадков.
R24 - Количество осадков - Количество выпавших осадков за 24 часа, мм.
S - Снежный покров - Высота снежного покрова, см. При наведении курсора мыши на число - состояние снежного покрова и степень покрытия местности в баллах.